TimeEDT,TemperatureF,Dew PointF,Humidity,Sea Level PressureIn,VisibilityMPH,Wind Direction,Wind SpeedMPH,Gust SpeedMPH,PrecipitationIn,Events,Conditions,WindDirDegrees,DateUTC
12:51 AM,51.1,30.0,44,30.07,10.0,SW,6.9,-,N/A,,Scattered Clouds,230,2013-05-15 04:51:00
1:51 AM,50.0,30.0,46,30.06,10.0,WSW,6.9,-,N/A,,Partly Cloudy,240,2013-05-15 05:51:00
2:51 AM,48.9,33.1,54,30.05,10.0,SSW,4.6,-,N/A,,Partly Cloudy,210,2013-05-15 06:51:00
3:51 AM,51.8,33.8,50,30.05,10.0,SW,3.5,-,N/A,,Mostly Cloudy,230,2013-05-15 07:51:00
4:51 AM,51.1,37.0,59,30.04,10.0,South,4.6,-,N/A,,Overcast,190,2013-05-15 08:51:00
5:51 AM,51.1,39.0,63,30.03,10.0,SSW,4.6,-,N/A,,Overcast,200,2013-05-15 09:51:00
6:51 AM,53.1,43.0,69,30.04,10.0,South,5.8,-,N/A,,Overcast,180,2013-05-15 10:51:00
7:51 AM,55.9,44.1,64,30.02,10.0,South,5.8,-,N/A,,Mostly Cloudy,170,2013-05-15 11:51:00
8:51 AM,59.0,42.1,53,30.00,10.0,SSE,9.2,-,N/A,,Mostly Cloudy,150,2013-05-15 12:51:00
9:51 AM,62.1,42.1,48,29.96,10.0,SSE,11.5,-,N/A,,Mostly Cloudy,150,2013-05-15 13:51:00
10:51 AM,61.0,45.0,56,29.95,10.0,SE,10.4,18.4,0.00,Rain,Light Rain,140,2013-05-15 14:51:00
11:51 AM,60.1,46.0,60,29.94,10.0,SE,9.2,-,0.00,Rain,Light Rain,130,2013-05-15 15:51:00
12:51 PM,60.1,50.0,69,29.89,10.0,SE,11.5,17.3,0.00,,Mostly Cloudy,130,2013-05-15 16:51:00
1:51 PM,62.1,52.0,70,29.88,10.0,SSE,6.9,-,N/A,,Overcast,150,2013-05-15 17:51:00
2:51 PM,64.0,53.1,67,29.83,9.0,ESE,4.6,-,0.00,Rain,Light Rain,120,2013-05-15 18:51:00
3:51 PM,66.9,54.0,63,29.75,10.0,SSE,10.4,-,0.00,,Mostly Cloudy,160,2013-05-15 19:51:00
4:51 PM,69.1,54.0,58,29.71,10.0,SSE,5.8,-,N/A,,Mostly Cloudy,160,2013-05-15 20:51:00
5:51 PM,70.0,55.0,59,29.70,10.0,East,4.6,-,N/A,,Mostly Cloudy,80,2013-05-15 21:51:00
6:51 PM,73.9,55.9,53,29.69,10.0,SW,15.0,21.9,N/A,,Mostly Cloudy,220,2013-05-15 22:51:00
7:06 PM,73.4,55.4,53,29.68,10.0,SSW,12.7,-,N/A,,Mostly Cloudy,210,2013-05-15 23:06:00
7:51 PM,72.0,55.0,55,29.68,10.0,SW,16.1,24.2,N/A,,Scattered Clouds,230,2013-05-15 23:51:00
8:51 PM,71.1,55.9,59,29.69,10.0,SW,13.8,-,N/A,,Scattered Clouds,230,2013-05-16 00:51:00
9:51 PM,70.0,57.0,63,29.70,10.0,SW,9.2,-,N/A,,Mostly Cloudy,220,2013-05-16 01:51:00
10:51 PM,70.0,57.0,63,29.72,10.0,NW,5.8,-,0.00,Rain,Light Rain,310,2013-05-16 02:51:00
11:51 PM,69.1,57.0,65,29.73,10.0,WSW,4.6,-,0.00,,Mostly Cloudy,250,2013-05-16 03:51:00